Regional Weather Roundup
Issued by NWS

Home | Current Version | Previous Version | Text Only | Print | Product List | Glossary Off
Versions: 1 2 3 4 5 6 7 8 9 10 11 12 13 14 15 16 17 18 19 20 21 22 23 24 25 26 27 28 29 30 31 32 33 34 35 36 37 38 39 40 41 42 43 44 45 46 47 48 49 50

414
ASUS43 KFSD 201410
RWRSD

WEATHER ROUNDUP FOR SOUTH DAKOTA
NATIONAL WEATHER SERVICE SIOUX FALLS SD
900 AM CDT SUN AUG 20 2017

NOTE: "FAIR" INDICATES FEW OR NO CLOUDS BELOW 12,000 FEET WITH NO
SIGNIFICANT WEATHER AND/OR OBSTRUCTIONS TO VISIBILITY.


SDZ001>005-009-010-012>017-201500-
NORTHWEST AND NORTH CENTRAL SOUTH DAKOTA

CITY           SKY/WX    TMP DP  RH WIND       PRES   REMARKS
BUFFALO          N/A     59  44  57 S3        30.05R
FAITH            N/A     62  49  62 NE15      30.05R
MOBRIDGE       CLOUDY    61  50  67 N9        30.00R
$$

SDZ012>016-024>037-041>051-057-063-072>074-201500-
SOUTHWEST AND SOUTH CENTRAL SOUTH DAKOTA

CITY           SKY/WX    TMP DP  RH WIND       PRES   REMARKS
RAPID CTY ARPT SUNNY     65  49  56 NW7       30.09R
PIERRE         MOSUNNY   66  55  67 N14       30.01R
CUSTER         SUNNY     59  43  55 NE14G23   30.17R
ELLSWORTH AFB  SUNNY     65  47  53 N9        30.09R
PHILIP         SUNNY     68  53  58 E13       30.01R
PINE RIDGE     SUNNY     64  54  69 VRB3      30.05R
SPEARFISH      FAIR      61  46  59 E7        30.13R
WINNER         FAIR      70  61  73 NE9       30.00R
$$

SDZ004>011-016>023-039-040-201500-
NORTHEAST SOUTH DAKOTA

CITY           SKY/WX    TMP DP  RH WIND       PRES   REMARKS
ABERDEEN       CLOUDY    63  55  75 N15       30.00R
WATERTOWN      CLOUDY    64  55  72 N13G25    29.95R
BROOKINGS      MOSUNNY   68  64  87 N7        29.96R
SISSETON         N/A     64  54  69 NW17G28   29.97R
$$

SDZ017-020-022-023-036>040-048>070-201500-
SOUTHEAST SOUTH DAKOTA

CITY           SKY/WX    TMP DP  RH WIND       PRES   REMARKS
SIOUX FALLS    MOSUNNY   73  65  75 VRB3      29.93R
HURON          CLOUDY    68  61  78 NE12      29.94R
CHAMBERLAIN    SUNNY     70  62  77 NE10      29.97R
MITCHELL       SUNNY     67  65  93 NW10      29.95R
YANKTON        SUNNY     70  64  81 CALM      29.93R
$$

ABBREVIATIONS USED IN REMARKS
   TC - TEMPERATURE IN CELSIUS
  WCI - WIND CHILL INDEX
   HX - HEAT INDEX
  VSB - VISIBILITY





USA.gov is the U.S. government's official web portal to all federal, state and local government web resources and services.